Flag for Canada Weather past 2 weeks in Calgary, Alberta, Canada

Now
48 °F

Partly sunny.


Feels Like: 45 °F
Forecast: 27 / 43 °F
Wind: 7 mph from Northeast

Location: Calgary International

Current Time: Mar 6, 2015 at 5:07:32 PM

Latest Report: Mar 6, 2015 at 4:00 PM


Visibility: 40 mi

Pressure: 30.19 "Hg

Humidity: 32%

Dew point: 19 °F

Location of CalgaryLocation

Historic Weather in Calgary — Graph

°F

Calgary temperature yesterday

Maximum temperature yesterday: 52 °F (at 3:00 PM)
Minimum temperature yesterday: 23 °F (at 4:00 AM)
Average temperature yesterday: 39 °F

Past Weeks' High & Low Weather Summary

 TemperatureHumidityPressure
High54 °F (Feb 23, 3:00 PM)93% (Mar 2, 4:00 AM)30.73 "Hg (Mar 2, 4:00 AM)
Low1 °F (Mar 3, 6:00 AM)24% (Feb 19, 3:00 PM)29.88 "Hg (Feb 24, 11:00 AM)
Average24 °F62%30.27 "Hg
* Reported Feb 19 3:00 PM — Mar 6 3:00 PM, Calgary, Weather by CustomWeather, © 2015

Note: Actual official high and low records may vary slightly from our data, if they occured in-between our weather recording intervals... More about our weather records

Advertising

Calgary weather history for previous 24 hours

 ConditionsComfort  
Time TempWeatherWind HumidityBarometerVisibility
3:00 PM
Fri, Mar 6
46 °FPartly sunny.10 mph37%30.18 "Hg40 mi
2:00 PM48 °FPartly sunny.15 mph37%30.16 "Hg40 mi
1:00 PM50 °FScattered clouds.13 mph35%30.15 "Hg40 mi
12:00 PM54 °FScattered clouds.15 mph24%30.13 "Hg40 mi
11:00 AM54 °FScattered clouds.14 mph24%30.11 "Hg40 mi
10:00 AM52 °FPassing clouds.15 mph26%30.11 "Hg40 mi
9:00 AM46 °FScattered clouds.5 mph34%30.11 "Hg40 mi
8:00 AM43 °FBroken clouds.7 mph39%30.09 "Hg40 mi
7:00 AM43 °FPassing clouds.10 mph39%30.08 "Hg40 mi
6:00 AM45 °FPassing clouds.13 mph37%30.06 "Hg15 mi
5:00 AM45 °FPassing clouds.16 mph39%30.04 "Hg15 mi
4:00 AM45 °FPassing clouds.15 mph39%30.02 "Hg15 mi
3:00 AM43 °FPassing clouds.15 mph39%30.03 "Hg15 mi
2:00 AM41 °FPassing clouds.8 mph42%30.04 "Hg15 mi
1:00 AM41 °FPassing clouds.10 mph42%30.05 "Hg15 mi
12:00 AM41 °FPassing clouds.13 mph39%30.06 "Hg15 mi
11:00 PM
Thu, Mar 5
43 °FPassing clouds.14 mph36%30.06 "Hg15 mi
10:00 PM41 °FPassing clouds.10 mph39%30.09 "Hg15 mi
9:00 PM43 °FPassing clouds.13 mph36%30.08 "Hg15 mi
8:00 PM43 °FPassing clouds.16 mph34%30.10 "Hg15 mi
7:00 PM41 °FPassing clouds.3 mph42%30.11 "Hg15 mi
6:00 PM41 °FOvercast.6 mph42%30.11 "Hg40 mi
5:00 PM46 °FOvercast.12 mph34%30.11 "Hg40 mi
Weather by CustomWeather, © 2015

See weather overviewHow to use our weather pages